Vertical_Velocity
-3 -2 -1 -1 -1 -0 0 -1 -0 -1 0 0 0 -0 -1 -2 -2 -0 -0 -1 -1 -1 -0 -2 -2 -2 -1 -1 -2 -2 -2 -2 -2 -1 -1 -1 -1 -0 -0 -1 -2 -1 -1
0 -1 -2 -1 -1 -0 0 -1 -0 -1 0 -0 -0 -0 0 1 -0 -0 -0 -1 -1 -1 -1 -1 -1 -1 -1 -1 -1 -1 -1 -1 -1 0 -0 -1 -3 -3 -2 -1 -1 -1 -1
-1 -0 -3 -3 -1 -0 -0 -0 -1 -0 -0 -0 -0 1 0 0 -0 -1 -1 -1 -0 -0 -1 -1 -0 -0 0 -0 -2 -1 -2 -1 -1 -1 -0 -1 -1 -1 -2 -1 -2 -1 -0
-0 1 -1 -1 -1 -1 -1 -0 -0 -0 -0 -1 -0 -1 -1 -1 -0 -1 -1 -0 -0 0 -1 -0 0 1 1 1 -0 0 1 0 -1 -1 -0 1 1 -0 -0 -2 -1 -1 -3
-0 -1 -2 -1 -2 -1 -0 0 1 -1 -1 -1 -1 -1 1 0 -0 -0 -0 -0 -1 -0 -0 0 1 0 1 0 -0 0 0 2 1 -0 -1 0 2 2 1 -0 1 1 -0
-1 0 -1 -1 -1 -0 1 -0 1 1 0 -1 -1 -1 1 1 1 0 -0 0 -0 0 -1 -1 -1 -1 -0 0 0 2 0 1 1 -1 -2 -1 -1 1 1 -0 0 -2 -2
-1 -1 -1 -1 -1 -1 -1 -1 -1 1 -1 0 -1 -1 0 -0 -0 -1 -0 0 0 -1 -0 0 0 0 1 1 0 1 1 -0 -0 1 0 -0 -1 -1 -1 1 -2 -1 -1
0 0 -0 -2 -2 -0 0 -1 -2 1 -0 -1 -0 -1 -0 -1 0 -0 -1 -0 -0 -1 -1 0 -0 -0 -0 -0 -0 -0 -1 -0 -0 1 1 1 -0 -1 0 1 0 -1 -1
-2 1 -1 1 0 0 0 -1 -0 1 0 -2 -1 0 -1 0 0 1 1 0 -0 -0 -1 0 -1 -0 -0 -1 -1 -1 0 0 -1 1 -0 0 -1 -0 -1 -0 -0 0 -1
-1 -0 -0 1 1 0 1 -0 -0 0 1 -0 -1 -1 -1 -1 -0 -1 -1 -1 -1 -0 -1 -1 -1 -1 -1 -1 -1 -2 -1 -1 -1 -1 1 -1 -0 -1 -1 0 0 -1 -2
-2 -2 1 0 1 -0 1 0 1 1 1 1 -1 0 -1 -1 -0 -1 -1 -1 -1 -1 -1 -1 -0 -1 -1 -1 -2 -2 0 -1 -0 -1 1 0 -0 -0 1 0 1 -0 0
0 -1 2 1 1 1 0 -0 0 0 3 2 -0 0 -1 -1 -0 -1 -1 -1 -1 -1 -2 -1 -1 -1 -1 -0 -2 -1 1 -0 -1 0 -2 0 0 -1 -1 -0 0 1 0
1 -0 1 1 1 1 -1 0 1 -0 0 1 1 1 0 0 -1 1 -1 -2 -1 -1 -1 -2 -1 -1 -0 -1 -1 0 1 -1 1 0 0 -0 0 -1 -1 -1 1 1 0
1 -1 -1 0 1 -0 -1 0 -1 1 1 -2 1 0 -1 -1 -0 1 0 -2 -1 0 -2 -1 1 -1 0 1 -0 -1 0 -2 0 -1 1 0 -3 -2 0 -1 -1 -0 1
3 0 -1 0 -0 1 -0 2 -3 2 0 -0 -0 -1 1 -2 -1 1 0 -2 -0 -0 -2 0 1 -0 -0 -0 -1 -3 2 -2 1 1 1 1 0 -0 -1 1 -0 -1 -0
2 2 -0 -0 1 0 -0 1 -1 1 0 0 -1 0 0 -1 -1 1 -0 -2 -1 -1 -1 -1 -1 -1 -2 -1 -1 -3 -0 -4 1 -0 1 0 -1 -1 0 -1 1 1 -1
1 2 0 1 2 1 2 1 -1 1 -2 0 -1 0 2 0 -2 1 -1 -2 -1 -1 -1 -1 -1 -2 -1 -1 -1 -0 -0 -2 -2 -0 2 1 0 0 1 -1 -1 -0 0
-1 3 1 2 3 -0 1 1 1 -0 -3 1 1 -1 1 1 -1 0 -2 -1 -1 -2 -1 -3 -2 -2 -3 -1 -1 -0 -2 -0 -2 -2 -1 1 -1 -1 -1 -0 -1 -0 1
3 -1 4 2 3 1 2 1 1 -0 -0 -0 -0 -1 1 -0 -1 -0 -1 -1 -1 -2 -3 -1 -1 -1 -3 0 -2 0 -1 -1 -3 -2 -0 -0 -1 1 0 -2 -1 -1 -2
-2 -2 -0 0 3 1 1 2 2 -1 -0 -1 0 -0 0 0 -1 0 -0 0 -1 -0 -1 -1 -1 -2 -2 0 -1 -1 -0 0 -1 -0 1 -1 -2 -3 -2 0 -1 -2 -1
-5 1 4 2 4 0 0 1 2 -1 -0 0 1 1 1 -0 -1 2 2 1 0 0 -1 -0 -2 -3 -2 -2 -2 -1 0 -1 -3 -1 -0 -0 -1 -1 -3 -3 1 1 -0
-3 4 -1 0 3 1 1 -0 1 0 -1 0 1 2 3 1 1 1 0 1 -1 -0 -1 -1 -1 -3 -1 -1 -2 -2 -1 0 -1 -1 0 1 0 0 1 -2 -4 -1 -0
0 8 3 0 2 -0 0 0 1 0 0 -0 0 2 1 0 -0 1 -0 1 -0 -1 -1 -1 -2 -1 -0 -0 -1 -1 -1 1 -0 1 1 1 1 1 -2 -3 -2 -3 -2
9 1 -1 1 -0 1 2 0 2 3 1 -0 -0 1 1 0 -0 0 -1 -0 -1 -1 -1 0 -1 -1 0 -1 -0 -0 0 1 -1 -2 -0 -2 -1 2 0 5 1 -3 -6
-1 -4 3 1 -1 3 2 1 2 2 0 -1 0 0 1 1 1 -1 -2 -2 -3 -1 -2 -1 -2 -0 -1 -3 -3 -3 -1 -1 -1 -2 1 1 -7 -3 -3 -1 -1 7 -1
-5 5 -3 -1 2 1 3 1 1 1 1 1 -0 -1 0 1 -0 -0 -1 -0 -1 -1 -2 -3 -3 -3 -2 -1 0 1 2 1 -0 -3 -3 -0 -2 6 -5 -6 -4 1 2
Height
3170 3171 3172 3174 3175 3177 3177 3178 3177 3177 3177 3176 3176 3175 3174 3173 3172 3172 3171 3170 3169 3169 3168 3167 3166 3165 3164 3163 3162 3161 3160 3159 3158 3158 3157 3155 3155 3154 3153 3152 3152 3151 3150
3169 3171 3172 3174 3175 3176 3177 3178 3178 3178 3177 3177 3176 3176 3175 3174 3173 3172 3171 3170 3169 3168 3168 3167 3166 3165 3164 3163 3162 3161 3159 3158 3158 3157 3156 3155 3154 3153 3152 3152 3151 3150 3150
3168 3170 3172 3173 3175 3176 3177 3178 3178 3178 3178 3177 3177 3176 3175 3174 3173 3172 3171 3171 3170 3169 3168 3167 3166 3165 3164 3163 3162 3161 3160 3159 3157 3156 3155 3153 3152 3151 3151 3150 3150 3149 3148
3168 3170 3171 3173 3174 3176 3177 3178 3178 3179 3178 3178 3177 3176 3175 3174 3174 3173 3172 3171 3170 3170 3169 3168 3167 3166 3164 3163 3162 3161 3159 3157 3155 3154 3153 3152 3151 3150 3149 3149 3148 3148 3147
3167 3170 3172 3173 3174 3176 3177 3178 3178 3179 3179 3179 3177 3176 3175 3174 3173 3173 3172 3172 3171 3170 3169 3168 3167 3166 3164 3162 3161 3160 3158 3156 3154 3152 3151 3151 3150 3149 3149 3147 3147 3147 3146
3167 3169 3172 3173 3175 3176 3177 3177 3178 3179 3179 3179 3178 3176 3176 3175 3174 3173 3172 3172 3171 3170 3169 3168 3166 3164 3163 3161 3159 3158 3156 3154 3152 3151 3149 3149 3148 3148 3147 3146 3145 3144 3143
3167 3169 3171 3173 3175 3176 3177 3178 3178 3178 3179 3178 3178 3176 3175 3175 3174 3173 3172 3172 3171 3170 3168 3167 3165 3163 3161 3159 3158 3156 3154 3152 3151 3149 3147 3146 3145 3145 3144 3143 3143 3142 3141
3166 3168 3170 3172 3175 3176 3177 3177 3178 3178 3178 3178 3177 3176 3175 3174 3173 3173 3172 3171 3170 3169 3167 3165 3163 3161 3159 3157 3156 3154 3152 3150 3148 3146 3145 3143 3142 3141 3141 3140 3140 3140 3139
3165 3167 3169 3171 3173 3175 3176 3177 3177 3177 3178 3178 3177 3176 3175 3174 3173 3172 3171 3170 3169 3168 3166 3164 3161 3159 3157 3154 3153 3151 3150 3147 3145 3143 3142 3140 3139 3138 3137 3137 3136 3136 3135
3163 3166 3168 3170 3172 3174 3175 3176 3177 3177 3177 3177 3176 3176 3174 3174 3172 3171 3170 3169 3167 3166 3164 3161 3159 3156 3154 3152 3150 3149 3147 3145 3142 3141 3138 3137 3136 3135 3134 3133 3132 3131 3131
3164 3165 3167 3169 3171 3173 3174 3176 3176 3177 3176 3176 3176 3175 3174 3173 3171 3170 3169 3168 3166 3164 3162 3159 3157 3154 3152 3150 3148 3146 3144 3142 3139 3137 3135 3134 3132 3131 3129 3129 3128 3128 3127
3163 3165 3166 3169 3170 3173 3174 3175 3175 3176 3176 3175 3175 3174 3173 3172 3169 3168 3168 3166 3164 3162 3159 3157 3155 3152 3150 3148 3146 3144 3142 3139 3137 3134 3133 3132 3130 3127 3125 3124 3123 3122 3122
3162 3164 3166 3168 3169 3172 3173 3174 3174 3175 3175 3175 3173 3173 3172 3171 3169 3166 3166 3164 3162 3160 3157 3155 3153 3150 3149 3147 3144 3142 3140 3137 3135 3133 3131 3129 3127 3125 3123 3120 3120 3118 3118
3160 3163 3165 3167 3168 3170 3172 3173 3173 3173 3173 3174 3173 3171 3170 3168 3168 3164 3164 3162 3159 3158 3156 3153 3151 3149 3147 3144 3141 3139 3137 3135 3133 3132 3129 3127 3124 3122 3121 3119 3115 3114 3114
3158 3161 3163 3166 3167 3169 3171 3172 3172 3171 3172 3172 3171 3170 3168 3166 3165 3163 3163 3160 3158 3156 3154 3151 3150 3147 3144 3141 3139 3136 3135 3132 3131 3129 3127 3124 3122 3120 3118 3117 3114 3110 3109
3154 3158 3161 3164 3165 3167 3169 3171 3170 3170 3171 3170 3169 3168 3166 3164 3163 3161 3160 3158 3156 3154 3152 3149 3147 3145 3141 3139 3137 3134 3132 3130 3129 3126 3124 3122 3120 3117 3115 3113 3112 3110 3106
3153 3156 3159 3162 3164 3166 3167 3169 3169 3169 3169 3169 3168 3166 3163 3162 3161 3159 3158 3156 3154 3152 3150 3147 3145 3143 3139 3136 3134 3131 3129 3128 3127 3124 3121 3119 3117 3115 3113 3111 3109 3107 3106
3151 3155 3157 3159 3162 3164 3165 3166 3167 3167 3167 3166 3165 3163 3162 3161 3158 3157 3156 3154 3152 3150 3147 3145 3143 3140 3136 3133 3131 3128 3127 3125 3123 3120 3118 3115 3114 3112 3110 3108 3106 3103 3101
3150 3153 3154 3157 3159 3161 3163 3164 3165 3164 3164 3164 3162 3160 3160 3158 3156 3155 3153 3151 3149 3148 3146 3143 3140 3137 3133 3131 3128 3126 3124 3122 3120 3118 3115 3113 3110 3108 3107 3105 3103 3101 3098
3148 3150 3151 3153 3156 3159 3160 3161 3162 3162 3161 3160 3159 3158 3157 3155 3154 3152 3150 3148 3147 3145 3142 3140 3137 3134 3131 3128 3126 3123 3121 3119 3116 3115 3113 3110 3107 3105 3103 3101 3100 3098 3096
3143 3145 3149 3151 3154 3156 3157 3158 3158 3159 3158 3157 3156 3154 3153 3152 3150 3148 3147 3145 3143 3140 3138 3136 3133 3131 3128 3125 3122 3121 3118 3115 3113 3111 3110 3108 3105 3102 3099 3097 3096 3094 3092
3141 3141 3146 3149 3151 3152 3154 3154 3155 3155 3155 3154 3152 3151 3150 3148 3146 3145 3143 3141 3138 3136 3134 3131 3129 3127 3125 3122 3119 3116 3114 3113 3109 3108 3106 3105 3103 3100 3097 3093 3091 3089 3087
3137 3140 3141 3145 3147 3149 3150 3150 3151 3151 3150 3149 3147 3146 3145 3143 3142 3140 3138 3136 3134 3132 3130 3128 3125 3123 3120 3117 3114 3112 3109 3107 3105 3103 3101 3099 3098 3096 3094 3090 3087 3084 3082
3134 3137 3139 3141 3143 3144 3146 3146 3146 3146 3146 3144 3143 3141 3140 3139 3137 3135 3133 3132 3130 3127 3124 3122 3120 3118 3115 3112 3109 3107 3104 3102 3099 3097 3095 3093 3091 3089 3087 3084 3082 3080 3077
3131 3132 3134 3136 3138 3140 3141 3142 3142 3141 3141 3140 3139 3137 3135 3134 3132 3130 3129 3127 3124 3122 3119 3117 3115 3112 3109 3107 3105 3102 3100 3097 3094 3091 3091 3088 3085 3083 3081 3078 3074 3073 3071
3124 3126 3129 3132 3134 3135 3136 3136 3136 3136 3136 3135 3134 3132 3130 3129 3127 3125 3124 3122 3119 3117 3114 3112 3109 3106 3103 3100 3098 3095 3094 3091 3088 3085 3082 3081 3080 3077 3075 3073 3070 3067 3065